Other Public Products
Issued by NWS Grand Forks, ND

Home | Current Version | Previous Version | Graphics & Text | Print | Product List | Glossary On
Versions: 1 2 3 4 5 6 7 8 9 10 11 12 13 14 15 16 17 18 19 20 21 22 23 24 25 26 27 28 29 30 31 32 33 34 35 36 37 38 39 40 41 42 43 44 45 46 47 48 49 50
000
FPUS83 KFGF 221610
OPUFGF
NATIONAL WEATHER SERVICE EASTERN NORTH DAKOTA/GRAND FORKS ND
1100 AM CDT FRI MAY 22 2015

 **SATELLITE DATA USED TO AUGMENT SKY COVER AT AUTOMATED STATIONS**
 *****  WEATHER ACROSS EASTERN NORTH DAKOTA  *****

CITY           SKY/WX    TMP DP  RH WIND       PRES   REMARKS
GRAND FORKS    SUNNY     68  37  32 S6        30.16F
GRAND FORKS AF SUNNY     69  39  33 SW7       30.17F
GRAND CITY NWS   N/A     66 N/A N/A SW10        N/A
BUXTON         NOT AVBL
DEVILS LAKE    SUNNY     66  39  37 SW7       30.16S
FARGO          SUNNY     68  33  27 E3        30.19S
WAHPETON ARPT  SUNNY     66  36  32 E3        30.21R
$$

 *****  WEATHER ACROSS CENTRAL AND WESTERN NORTH DAKOTA  *****

CITY           SKY/WX    TMP DP  RH WIND       PRES   REMARKS
JAMESTOWN      SUNNY     67  41  38 S10       30.17F
BISMARCK       SUNNY     68  39  34 VRB3      30.16S
MINOT          SUNNY     71  37  28 E9        30.13S
MINOT AFB      SUNNY     74  38  27 S9        30.12S
GARRISON         N/A     66  35  31 VRB5      30.15S
WILLISTON      SUNNY     69  35  28 E7        30.12F
DICKINSON      MOSUNNY   66  33  29 SE20      30.11F
HETTINGER      MOSUNNY   63  38  39 SE16G26   30.13F
$$

 *****  OTHER OBSERVATIONS NORTHEAST NORTH DAKOTA  *****

CITY           SKY/WX    TMP DP  RH WIND       PRES   REMARKS
WALHALLA       FAIR      73  36  25 W9        30.13F
LANGDON        FAIR      72  39  30 W10       30.16S
CAVALIER       FAIR      70  41  35 SW8       30.14S
GRAFTON        FAIR      68  45  42 S8        30.16F
CANDO          FAIR      72  34  25 S7        30.16S
FORT TOTTEN      N/A     69  36  30 S7        29.95S
ROLLA          FAIR      70  32  24 SW13      30.16S
RUGBY          NOT AVBL
 ***** THE ABOVE OBSERVATIONS ARE NON NWS ARE NOT QUALITY
        CONTROLLED AND MAY MIS-REPORT RAIN FOR SNOW...
$$

 *****  OTHER OBSERVATIONS SOUTHEAST NORTH DAKOTA *****

CITY           SKY/WX    TMP DP  RH WIND       PRES   REMARKS
COOPERSTOWN    NOT AVBL
VALLEY CITY    FAIR      66  37  34 S6        30.19S
OAKES            N/A     66  39  37 SE8       30.19S
GWINNER        NOT AVBL
BUFFALO        NOT AVBL
WYNDMERE         N/A     70  34  26 E6          N/A
 ***** THE ABOVE OBSERVATIONS ARE NON NWS ARE NOT QUALITY
       CONTROLLED AND MAY MIS-REPORT RAIN FOR SNOW...
$$

  *****  WEATHER ACROSS NORTHERN MINNESOTA  *****

CITY           SKY/WX    TMP DP  RH WIND       PRES   REMARKS
FLAG ISLAND    SUNNY     54  43  66 S13       30.15S
WARROAD        SUNNY     66  43  42 SW10      30.17F
ROSEAU         SUNNY     66  39  37 SW8       30.17S
HALLOCK        SUNNY     68  39  34 S8        30.15F
THF RVR FALLS  SUNNY     64  34  32 S6        30.19F
HALSTAD        NOT AVBL
FOSSTON        SUNNY     66  52  59 CALM      30.19F
BAUDETTE       SUNNY     65  37  35 VRB3      30.17F
WASKISH        SUNNY     63  43  48 W7        30.19S
CROOKSTON      SUNNY     66  34  30 S6        30.18F
$$
  *****  WEATHER ACROSS CENTRAL AND WEST MINNESOTA  *****

CITY           SKY/WX    TMP DP  RH WIND       PRES   REMARKS
BEMIDJI        SUNNY     64  34  32 NW3       30.19S
PARK RAPIDS    SUNNY     66  33  29 VRB5      30.19F
WADENA         SUNNY     64  37  36 S5        30.20S
DETROIT LAKES  SUNNY     64  34  32 CALM      30.21S
MOORHEAD       SUNNY     64  36  34 SE3       30.20S
FERGUS FALLS   SUNNY     66  36  32 CALM      30.20F
ELBOW LAKE     FAIR      64  36  35 CALM      30.21R
MORRIS MN      SUNNY     68  37  32 CALM      30.20S
STAPLES        SUNNY     64  30  27 W5        30.21S
WHEATON        SUNNY     66  36  32 CALM      30.22S
$$
  *****  WEATHER ELSEWHERE ACROSS MINNESOTA  *****

CITY           SKY/WX    TMP DP  RH WIND       PRES   REMARKS
DULUTH         SUNNY     64  31  28 NW9       30.21S
INTRNTL FALLS  SUNNY     65  29  25 W7        30.18S
ELY            SUNNY     61  25  25 W6        30.19F
CLOQUET        SUNNY     63  25  23 CALM      30.21F
BRAINERD       SUNNY     65  33  30 NE3       30.21F
HIBBING        SUNNY     64  28  25 MISG      30.20S
ALEXANDRIA     SUNNY     65  34  31 SW7       30.22S
SAINT CLOUD    SUNNY     65  34  31 CALM      30.22R
MINNEAPOLIS    SUNNY     67  34  29 CALM      30.22R
$$

  *****  WEATHER ACROSS SOUTH DAKOTA  *****

CITY           SKY/WX    TMP DP  RH WIND       PRES   REMARKS
SIOUX FALLS    PTSUNNY   71  40  32 NE5       30.21S
BROOKINGS      SUNNY     66  39  37 SE7       30.22R
WATERTOWN      SUNNY     68  35  29 SE7       30.19F
HURON          SUNNY     69  38  32 SW3       30.19S
SISSETON         N/A     68  34  28 S6        30.19S
ABERDEEN       SUNNY     68  41  37 SE7       30.17F
MITCHELL       SUNNY     68  41  37 SE5       30.20F
PIERRE         SUNNY     67  43  41 SE13      30.15S
MOBRIDGE       SUNNY     68  33  27 S10       30.14S
RAPID CITY     CLOUDY    57  46  66 S12       30.10S
$$

  *****  SOME WEATHER IN NEARBY STATES *****

CITY           SKY/WX    TMP DP  RH WIND       PRES   REMARKS
GLASGOW MT     SUNNY     65  34  31 SE21      30.04F
GREAT FALLS MT SUNNY     61  43  51 VRB3      29.96S
CHEYENNE WY    LGT RAIN  43  41  93 SE10      30.04S FOG
SCOTTSBLUFF NE LGT RAIN  49  32  52 SE18      30.08S
OMAHA NE       CLOUDY    66  46  48 CALM      30.24S
DES MOINES IA  CLOUDY    70  42  36 CALM      30.22S
DAVENPORT IA   SUNNY     71  40  32 NW5       30.21R
CHICAGO IL     MOSUNNY   61  32  33 NE10      30.22R
EAU CLAIRE WI  SUNNY     66  32  28 VRB3      30.21R
LA CROSSE WI   SUNNY     66  44  45 S8        30.21R
$$

  *****  SOME NATIONAL WEATHER *****

CITY           SKY/WX    TMP DP  RH WIND       PRES   REMARKS
LA GUARDIA NY  MOSUNNY   70  39  32 NW13G23   29.91F
RALEIGH NC     MOSUNNY   66  44  45 NE9       30.20F
ATLANTA GA     MOSUNNY   69  49  48 VRB7      30.22F
NEW ORLEANS LA PTSUNNY   72  61  68 NE10      30.18S
OKLAHOMA CITY  CLOUDY    58  55  90 S12       30.19R
ALBUQUERQUE NM PTSUNNY   57  45  64 SW5       30.12R
SALT LAKE CITY CLOUDY    57  43  59 SE7       29.91S
LOS ANGELES CA PTSUNNY   60  50  69 W13       30.03R
BOISE ID       CLOUDY    62  49  62 W7        29.90R
SEATTLE WA     CLOUDY    54  50  86 SW10      29.99R
$$

*** WEATHER ACROSS MANITOBA...SASKATCHEWAN AND ONTARIO ***
                ***ONTARIO***

CITY           SKY/WX    TMP DP  RH WIND       PRES   REMARKS
GERALDTON      SUNNY     45  19  36 NW8       30.20F
THUNDER BAY    SUNNY     50  30  46 E8        30.22F
SIOUX LOOKOUT  SUNNY     57  25  28 W6        30.16F
TORONTO        PTSUNNY   59  30  33 NW17G26   30.06S
BIG TROUT LK   SUNNY     48  21  34 S7        30.08F
PICKLE LAKE    SUNNY     50  18  27 NW5       30.14F
DRYDEN         SUNNY     61  28  29 SW6       30.15F
KENORA         MOSUNNY   63  36  36 SW10      30.16F
$$
                *** MANITOBA***

CITY           SKY/WX    TMP DP  RH WIND       PRES   REMARKS
BRANDON        MOSUNNY   68  41  37 W13       30.13F
DAUPHIN        SUNNY     73  43  33 W14G22    30.08S
ISLAND LAKE    PTSUNNY   59  34  38 E3        29.98F
PILOT MOUND      N/A     72  34  25 W7          N/A
THE PAS        PTSUNNY   73  37  27 W14       29.96F
THOMPSON       MOSUNNY   64  37  36 N10       29.90S
WINNIPEG       MOSUNNY   70  41  35 SW12G20   30.10F
LYNN LAKE      SUNNY     72  32  23 NE12      29.92F
CHURCHILL      PTSUNNY   41  34  75 N22       29.86R
GILLAM         MOSUNNY   63  30  29 S9        29.91F
$$
                ***SASKATCHEWAN***

CITY           SKY/WX    TMP DP  RH WIND       PRES   REMARKS
ESTEVAN        SUNNY     70  37  30 CALM      30.12F
KINDERSLEY     SUNNY     72  30  21 S15G24    30.06S
LLOYDMINSTER   SUNNY     70  28  21 S6        30.03S
PRINCE ALBERT  SUNNY     73  39  29 W9        30.05S
REGINA         SUNNY     68  39  34 SE3       30.10F
YORKTON        MOSUNNY   75  28  17 W13G18    30.09F



USA.gov is the U.S. government's official web portal to all federal, state and local government web resources and services.